ギブス彗星

229P/Gibbs (2025)

English version
Home page
Updated on May 13, 2024

---------------------------------------------------------------------

・ プロフィール

・ 軌道要素

Epoch 2025 Feb. 14.0 TT = JDT 2460720.5
T 2025 Mar. 5.76035 TT                                  MPCW
q   2.4403673            (2000.0)            P               Q
n   0.12685041     Peri.  224.20854     +0.89981619     -0.40361113
a   3.9229081      Node   157.88361     +0.40664880     +0.91343230
e   0.3779188      Incl.   26.09734     -0.15801134     +0.05234005
P   7.77
From 148 observations 2001 Aug. 23-2017 Sept. 25, mean residual 0".8.
     Nongravitational parameters A1 = +1.38, A2 = +0.0113.

・ 光度変化

        m1 = 11.0 + 5 logΔ + 15.0 log r(t - 100)

---------------------------------------------------------------------

軌道要素はM.P.E.C. 2017-T14に掲載されたものです。
光度グラフはComet for Windowsで作成したものです。

---------------------------------------------------------------------

Copyright(C) Seiichi Yoshida (comet@aerith.net). All rights reserved.